Regional Weather Roundup
Issued by NWS Charleston, SC

Current Version | Previous Version | Graphics & Text | Print | Product List | Glossary On
Versions: 1 2 3 4 5 6 7 8 9 10 11 12 13 14 15 16 17 18 19 20 21 22 23 24 25 26 27 28 29 30 31 32 33 34 35 36 37 38 39 40 41 42 43 44 45 46 47 48 49 50
000 ASUS42 KCHS 261611 RWRCHS REGIONAL WEATHER ROUNDUP NATIONAL WEATHER SERVICE CHARLESTON SC 1100 AM EST THU FEB 26 2015 NOTE: "FAIR" INDICATES FEW OR NO CLOUDS BELOW 12,000 FEET WITH NO SIGNIFICANT WEATHER AND/OR OBSTRUCTIONS TO VISIBILITY. NOT ALL STATIONS ARE QUALITY CONTROLLED BY THE NATIONAL WEATHER SERVICE. USE DATA WITH CAUTION...ESPECIALLY DEWPOINT OBSERVATIONS. SCZ027-030-031-034>040-042>050-261700- ...SOUTHEAST SOUTH CAROLINA... CITY SKY/WX TMP DP RH WIND PRES REMARKS N CHARLESTON CLOUDY 40 37 89 NW14 29.86R WCI 32 WATERFRONT PRK N/A 41 N/A N/A NW9G15 N/A MOUNT PLEASANT LGT RAIN 39 36 87 NW12G17 29.85R WCI 32 PINOPOLIS N/A 39 37 93 N14 29.77R WCI 31 MONCKS CORNER CLOUDY 41 36 81 N7 N/A SUMMERVILLE CLOUDY 39 37 93 NW7 29.88R WCI 34 BEAUFORT MCAS CLOUDY 41 37 86 NW12 29.88R BEAUFORT ARPT CLOUDY 41 39 93 NW9 29.87R HILTON HEAD IS CLOUDY 41 37 87 N9G16 29.88R WALTERBORO CLOUDY 41 37 87 NW7 29.88R ALLENDALE CLOUDY 41 37 87 NW8 29.88R ...SOUTHERN MIDLANDS AND PEE DEE... CITY SKY/WX TMP DP RH WIND PRES REMARKS GEORGETOWN NOT AVBL KINGSTREE NOT AVBL ORANGEBURG CLOUDY 40 34 79 N6 29.87R WCI 36 BARNWELL CLOUDY 43 37 81 N8 29.89R AIKEN CLOUDY 39 37 93 N8 29.91R WCI 34 MANNING CLOUDY 39 39 100 N8 29.87R WCI 34 COLUMBIA CLOUDY 42 35 76 N6 29.88R SUMTER CLOUDY 38 34 86 N9 29.85R WCI 31 FLORENCE CLOUDY 37 34 89 N13 29.86R WCI 29 MYRTLE BEACH CLOUDY 39 34 81 N17 29.83R WCI 30 N MYRTLE BEACH CLOUDY 38 33 82 N10G18 29.80R WCI 31 $$ GAZ063-065-086>088-099>101-113>116-118-119-134>141-150-261700- ...SOUTHEAST GEORGIA... CITY SKY/WX TMP DP RH WIND PRES REMARKS SAVANNAH ARPT CLOUDY 41 37 86 NW12 29.89R HUNTER AAF CLOUDY 42 38 86 NW13 29.86R FORT STEWART NOT AVBL STATESBORO CLOUDY 41 41 100 NW10 29.90R SYLVANIA CLOUDY 41 39 94 NW12 29.89R CLAXTON CLOUDY 41 37 87 NW7 29.90R ...CSRA...CENTRAL AND FAR SOUTHEAST GEORGIA... CITY SKY/WX TMP DP RH WIND PRES REMARKS THOMSON CLOUDY 41 39 93 CALM 29.95R AUGUSTA-BUSH CLOUDY 42 36 79 N6 29.90R AUGUSTA-DANIEL CLOUDY 42 35 76 N7 29.90R SWAINSBORO CLOUDY 43 37 81 NW8 29.92R VIDALIA CLOUDY 41 37 87 NW9 29.91R EASTMAN CLOUDY 41 41 100 CALM 29.96R HAZLEHURST CLOUDY 43 41 95 N10 29.91R ALMA CLOUDY 43 39 86 NW12 29.90R WAYCROSS CLOUDY 51 45 80 NW9 29.91R JESUP CLOUDY 45 43 93 N8 29.90R BAXLEY CLOUDY 43 41 93 NW8 29.91R BRUNSWICK CLOUDY 46 41 81 NW13G18 29.90R SAINT SIMONS CLOUDY 47 40 76 W13G20 29.89R $$ SCZ027-028-034-036>038-045-046-048>050-GAZ119-141-261700- ...LAKE AND SUPPLEMENTAL COASTAL OBSERVATIONS... STATION/POSITION TIME TEMP WIND PRES WAVE SWELL AIR SEA DIR/SP/G HT/PER HT/PER/DIR (UTC) (F) (DEG/KT/KT) (MB) (FT/S) (FT/S/D) UPR LAKE MARION NOT AVBL WINYAH BAY 1445 37 330/ 8 1007.0 LAKE MURRAY 1500 38 10/ 3/ 8 1010.8R ACE BASIN NERRS NOT AVBL FORT PULASKI 1500 40 49 300/ 15/ 17 1011.4R SAPELO ISLAND 1500 43 300/ 13 1011.0R $$ ANZ835-935-AMZ111-154-330-350-352-354-370-450-454-472-261700- ...C-MAN AND BUOY OBSERVATIONS... STATION/POSITION TIME TEMP WIND PRES WAVE SWELL AIR SEA DIR/SP/G HT/PER HT/PER/DIR (UTC) (F) (DEG/KT/KT) (MB) (FT/S) (FT/S/D) BUOY 41004 1550 44 66 330/ 16/ 21 1009.2R 8/ 8 5/ 8 BUOY 41008 1550 44 52 310/ 17/ 21 1011.3R 5/ 8 3/150/ 8 FOLLY BEACH CMAN 1600 40 320/ 8/ 12 1011.4R CAPERS NEARSHORE NOT AVBL FRIPP NEARSHORE 1500 41 320/ 16/ 19 1010.5R STATION/POSITION TIME TEMP WIND PRES WAVE SWELL AIR SEA DIR/SP/G HT/PER HT/PER/DIR (UTC) (F) (DEG/KT/KT) (MB) (FT/S) (FT/S/D) 5E ST. MARYS GA 1521 54 N/A 4/ 7 2/ 90/11 FRYING PAN BUOY 1550 41 58 330/ 16/ 19 1008.5R 10/10 8/190/10 BUOY 41025 NOT AVBL CAPE LOOKOUT NC 1600 37 350/ 20/ 23 1005.9R BUOY 41002 1550 74 71 220/ 29/ 37 1005.3R 14/ 9 8/220/ 9 BUOY 41010 1520 76 75 220/ 21/ 29 1009.6R ST AUGUSTINE FL 1600 57 340/ 12/ 14 1011.4R $$

USA.gov is the U.S. government's official web portal to all federal, state and local government web resources and services.